Skip Page Navigation
NASA JPL Caltech
NASA Logo - Jet Propulsion Laboratory + View the NASA Portal
+ Center for Near-Earth Object Studies
JPL Home Earth Solar System Stars & Galaxies Technology
JPL Solar System Dynamics
BODIES ORBITS EPHEMERIDES TOOLS PHYSICAL DATA DISCOVERY FAQ SITE MAP

Significant website upgrade scheduled for September 27. More details available here.

JPL Small-Body Database Browser
Search: [ help ]  
192106 (2006 CE23)
Classification: Main-belt Asteroid          SPK-ID: 2192106
Ephemeris | Orbit Diagram | Orbital Elements | Mission Design | Physical Parameters | Discovery Circumstances | Close-Approach Data ]

[ show orbit diagram ]
Orbital Elements at Epoch 2459396.5 (2021-Jul-01.0) TDB
Reference: JPL 19 (heliocentric ecliptic J2000)
 Element Value Uncertainty (1-sigma)   Units 
e .1188760986109791 4.9556e-08  
a 3.168879424686881 3.0586e-08 au
q 2.792175401711501 1.7188e-07 au
i 4.492593367739622 5.1377e-06 deg
node 158.2993104032643 6.5453e-05 deg
peri 337.1239997742658 6.9834e-05 deg
M 319.3420255733974 2.6037e-05 deg
tp 2459629.202064593759
(2022-Feb-18.70206459)
0.00015064 TDB
period 2060.425892710986
5.64
2.9831e-05
8.167e-08
d
yr
n .1747211589960818 2.5296e-09 deg/d
Q 3.545583447662261 3.4222e-08 au
  Orbit Determination Parameters
   # obs. used (total)      415  
   data-arc span      7595 days (20.79 yr)  
   first obs. used      2000-03-27  
   last obs. used      2021-01-11  
   planetary ephem.      DE441  
   SB-pert. ephem.      SB441-N16  
   condition code      0  
   norm. resid. RMS      .54533  
   source      ORB  
   producer      Otto Matic  
   solution date      2021-Apr-13 22:14:42  

Additional Information
 Earth MOID = 1.80733 au 
 Jupiter MOID = 1.48659 au 
 T_jup = 3.187 
[ show covariance matrix ]

Ephemeris | Orbit Diagram | Orbital Elements | Mission Design | Physical Parameters | Discovery Circumstances | Close-Approach Data ]

Physical Parameter Table
Parameter Symbol Value Units Sigma Reference Notes
absolute magnitude H 15.25   n/a MPCxxxxx  
diameter diameter 4.899 km 0.445 urn:nasa:pds:neowise_diameters_albedos::2.0[mainbelt] (http://adsabs.harvard.edu/abs/2011ApJ...741...68M)  
geometric albedo albedo 0.061   0.005 urn:nasa:pds:neowise_diameters_albedos::2.0[mainbelt] (http://adsabs.harvard.edu/abs/2011ApJ...741...68M)  

192106 (2006 CE23)          Discovered 2006-Feb-01 by Spacewatch at Kitt Peak
Reference: 20080917/Numbers.arcLast Updated: 2008-09-19

[ hide close-approach data ]
Close-Approach Data   ...sorted by Date/Time (TDB)
Date/Time (TDB) Time Uncertainty
(days_HH:MM)
Body Nominal Distance (au) Minimum Distance (au) Maximum Distance (au) V-relative (km/s) V-infinity (km/s) JD (TDB) Time Uncertainty (minutes) Semi-major axis (km) Semi-minor axis (km) range-LOV angle (deg) N-sigma BP Orbit Ref. Reference Modified
1952-Sep-28 17:13 00:03 Jupiter 1.93588460502744 1.93588255948872 1.93588665056815 3.64659892985896 3.52457207916336 2434284.217611264 3.36472653486019 147.624174193025 23.5479649044176 55.8641176754058 2072433.8256284 T 19 CATAB v2.0f-lin.ifort 2021-Apr-13 22:14:43 2021-Apr-13 22:14
1963-Jun-25 22:40 00:03 Jupiter 1.65436792632194 1.6543666676091 1.654369185039 2.50342585439513 2.28979426428185 2438206.444153810 2.80586882012353 172.157800523749 12.7108974328373 80.4332929039234 1761430.9565009 T 19 CATAB v2.0f-lin.ifort 2021-Apr-13 22:14:43 2021-Apr-13 22:14
1974-Apr-01 04:01 00:02 Jupiter 1.54996586491442 1.549965343468 1.54996638636057 1.94634530165601 1.64173800926738 2442138.667028489 2.09741604247902 135.642385152869 38.3580081358569 -87.387370199599 1792615.42336175 T 19 CATAB v2.0f-lin.ifort 2021-Apr-13 22:14:43 2021-Apr-13 22:14
1985-Jan-06 11:59 00:02 Jupiter 1.69762780105119 1.69762691897887 1.69762868312302 2.06192171680693 1.8037825889331 2446071.999297023 1.50377847310406 66.9706535302266 15.9716173437829 -83.2001797928302 1551542.59897017 T 19 CATAB v2.0f-lin.ifort 2021-Apr-13 22:14:43 2021-Apr-13 22:14
1995-Oct-11 09:51 < 00:01 Jupiter 1.98034948163582 1.98034871304856 1.98035025022286 2.93641428307901 2.786952015329 2450001.910282682 0.914547747569069 51.698875925889 25.2181083387347 88.6022160820302 1999938.27118859 T 19 CATAB v2.0f-lin.ifort 2021-Apr-13 22:14:43 2021-Apr-13 22:14
2071-Sep-07 07:21 00:02 Jupiter 1.98523008328058 1.98522895399266 1.98523121256895 3.80156841037072 3.68762770671847 2477726.806186616 2.36977792952604 85.2482058929253 22.9461624218857 59.4695751191296 2318777.51030529 T 19 CATAB v2.0f-lin.ifort 2021-Apr-13 22:14:43 2021-Apr-13 22:14
2082-Jun-04 03:48 00:03 Jupiter 1.68616803589482 1.68616676927219 1.68616930252089 2.60167295021732 2.40083956332463 2481649.658529129 2.93659465274174 161.350129341387 12.8954015669509 79.2119615190503 1798369.0231688 T 19 CATAB v2.0f-lin.ifort 2021-Apr-13 22:14:43 2021-Apr-13 22:14
2093-Mar-09 17:50 00:03 Jupiter 1.53894971134067 1.53894916554335 1.5389502571394 2.00162810683937 1.70462168962039 2485581.242766947 3.44203118954914 224.079658147064 39.1265277508777 -83.320435772218 1670157.55534082 T 19 CATAB v2.0f-lin.ifort 2021-Apr-13 22:14:43 2021-Apr-13 22:14
2103-Dec-20 16:47 00:04 Jupiter 1.65070167969183 1.65070026778618 1.65070309159917 2.02849828626484 1.75742646252995 2489518.198983211 4.12416961850283 136.251606752336 28.155036520929 -73.6669924253407 2126809.33970357 T 19 CATAB v2.0f-lin.ifort 2021-Apr-13 22:14:43 2021-Apr-13 22:14
2114-Sep-24 00:06 00:05 Jupiter 1.92805239358745 1.92805004918903 1.92805473798466 2.78492928359756 2.62244178854577 2493448.504305050 4.73547659700101 98.3779109530217 46.731584584517 40.409301220567 1028609.71371165 T 19 CATAB v2.0f-lin.ifort 2021-Apr-13 22:14:43 2021-Apr-13 22:14

Alternate Designations
 2006 CE23 = 2000 JG90 = 2005 AS49 
Ephemeris | Orbit Diagram | Orbital Elements | Mission Design | Physical Parameters | Discovery Circumstances | Close-Approach Data ]
ABOUT SSD CREDITS/AWARDS PRIVACY/COPYRIGHT GLOSSARY LINKS
FirstGov 2021-Sep-19 06:11 UT
(server date/time)  
NASA Home Page
Site Manager:   Ryan S. Park
Webmaster  Alan B. Chamberlin